| time (UTC) | temp F | wind direction | speed MPH | gust MPH | rain 1hr in | rain 24hr in | rain mn in | humidity % | barometer mb |
| 20260505164319 | 79 | 234 | 5.0 | 6.0 | 0.00 | 0.00 | 0.00 | 82 | 1005.3 |
| 20260505163818 | 78 | 138 | 11.0 | 11.0 | 0.00 | 0.00 | 0.00 | 82 | 1005.3 |
| 20260505163316 | 78 | 163 | 3.0 | 3.0 | 0.00 | 0.00 | 0.00 | 82 | 1005.0 |
| 20260505162814 | 78 | 300 | 6.0 | 7.0 | 0.00 | 0.00 | 0.00 | 83 | 1005.0 |
| 20260505162310 | 78 | 222 | 7.0 | 7.0 | 0.00 | 0.00 | 0.00 | 85 | 1005.0 |
| 20260505161807 | 78 | 174 | 9.0 | 10.0 | 0.00 | 0.00 | 0.00 | 85 | 1005.0 |
| 20260505161304 | 77 | 162 | 6.0 | 6.0 | 0.00 | 0.00 | 0.00 | 86 | 1005.0 |
| 20260505160802 | 77 | 180 | 6.0 | 6.0 | 0.00 | 0.00 | 0.00 | 87 | 1005.3 |
| 20260505160259 | 77 | 150 | 7.0 | 7.0 | 0.00 | 0.00 | 0.00 | 87 | 1005.0 |
| 20260505153238 | 75 | 154 | 6.0 | 6.0 | 0.00 | 0.00 | 0.00 | 90 | 1005.0 |
| 20260505152735 | 75 | 167 | 7.0 | 7.0 | 0.00 | 0.00 | 0.00 | 90 | 1005.0 |
| 20260505152231 | 75 | 156 | 6.0 | 6.0 | 0.00 | 0.00 | 0.00 | 90 | 1005.0 |
| 20260505151726 | 75 | 174 | 7.0 | 8.0 | 0.00 | 0.00 | 0.00 | 90 | 1005.0 |
| 20260505151224 | 75 | 163 | 6.0 | 7.0 | 0.00 | 0.00 | 0.00 | 90 | 1005.0 |
| 20260505150720 | 75 | 153 | 8.0 | 9.0 | 0.00 | 0.00 | 0.00 | 91 | 1005.0 |
| 20260505150217 | 74 | 167 | 10.0 | 10.0 | 0.00 | 0.00 | 0.00 | 91 | 1005.0 |
| 20260505140645 | 74 | 152 | 8.0 | 9.0 | 0.00 | 0.00 | 0.00 | 91 | 1005.0 |
| 20260505140142 | 73 | 149 | 8.0 | 9.0 | 0.00 | 0.00 | 0.00 | 91 | 1004.7 |
| 20260505130106 | 72 | 162 | 4.0 | 4.0 | 0.00 | 0.00 | 0.00 | 92 | 1004.3 |
| 20260505124555 | 72 | 188 | 6.0 | 6.0 | 0.00 | 0.00 | 0.00 | 92 | 1004.3 |
| 20260505124051 | 72 | 198 | 15.0 | 17.0 | 0.00 | 0.00 | 0.00 | 92 | 1004.3 |
| 20260505123548 | 72 | 133 | 9.0 | 9.0 | 0.00 | 0.00 | 0.00 | 92 | 1004.0 |
| 20260505123044 | 72 | 160 | 4.0 | 4.0 | 0.00 | 0.00 | 0.00 | 92 | 1004.0 |
| 20260505122541 | 72 | 141 | 6.0 | 6.0 | 0.00 | 0.00 | 0.00 | 92 | 1004.0 |
| 20260505122038 | 71 | 150 | 11.0 | 11.0 | 0.00 | 0.00 | 0.00 | 92 | 1004.0 |
| 20260505121535 | 71 | 171 | 5.0 | 6.0 | 0.00 | 0.00 | 0.00 | 92 | 1004.0 |
| 20260505121032 | 71 | 164 | 6.0 | 6.0 | 0.00 | 0.00 | 0.00 | 92 | 1004.3 |
| 20260505120528 | 71 | 180 | 7.0 | 8.0 | 0.00 | 0.00 | 0.00 | 92 | 1004.0 |
| 20260505120023 | 71 | 158 | 6.0 | 6.0 | 0.00 | 0.00 | 0.00 | 92 | 1004.0 |
| 20260505115518 | 71 | 204 | 7.0 | 8.0 | 0.00 | 0.00 | 0.00 | 92 | 1003.6 |
| 20260505115016 | 71 | 180 | 7.0 | 8.0 | 0.00 | 0.00 | 0.00 | 92 | 1004.0 |
| 20260505114513 | 71 | 149 | 7.0 | 8.0 | 0.00 | 0.00 | 0.00 | 92 | 1004.0 |
| 20260505114009 | 71 | 144 | 5.0 | 6.0 | 0.00 | 0.00 | 0.00 | 92 | 1004.0 |
| 20260505113506 | 71 | 155 | 4.0 | 4.0 | 0.00 | 0.00 | 0.00 | 92 | 1004.3 |
| 20260505113002 | 71 | 164 | 9.0 | 9.0 | 0.00 | 0.00 | 0.00 | 92 | 1004.0 |
| 20260505112459 | 71 | 145 | 3.0 | 3.0 | 0.00 | 0.00 | 0.00 | 92 | 1004.0 |
| 20260505111956 | 71 | 155 | 7.0 | 7.0 | 0.00 | 0.00 | 0.00 | 92 | 1003.6 |
| 20260505111450 | 71 | 174 | 10.0 | 10.0 | 0.00 | 0.00 | 0.00 | 92 | 1004.0 |
| 20260505110946 | 71 | 180 | 10.0 | 10.0 | 0.00 | 0.00 | 0.00 | 92 | 1004.0 |
| 20260505110443 | 71 | 169 | 8.0 | 9.0 | 0.00 | 0.00 | 0.00 | 92 | 1003.6 |
| 20260505101914 | 71 | 186 | 5.0 | 6.0 | 0.00 | 0.00 | 0.00 | 91 | 1004.0 |
| 20260505101409 | 71 | 168 | 9.0 | 9.0 | 0.00 | 0.00 | 0.00 | 91 | 1004.0 |
| 20260505100905 | 71 | 204 | 11.0 | 11.0 | 0.00 | 0.00 | 0.00 | 91 | 1004.0 |
| 20260505100402 | 71 | 149 | 11.0 | 11.0 | 0.00 | 0.00 | 0.00 | 92 | 1003.6 |
| 20260505095857 | 71 | 160 | 5.0 | 5.0 | 0.00 | 0.00 | 0.00 | 92 | 1004.3 |
| 20260505095355 | 71 | 174 | 7.0 | 8.0 | 0.00 | 0.00 | 0.00 | 91 | 1004.0 |
| 20260505094851 | 71 | 138 | 10.0 | 11.0 | 0.00 | 0.00 | 0.00 | 91 | 1004.0 |
| 20260505094348 | 71 | 153 | 5.0 | 6.0 | 0.00 | 0.00 | 0.00 | 91 | 1004.0 |
| 20260505093843 | 71 | 180 | 8.0 | 9.0 | 0.00 | 0.00 | 0.00 | 91 | 1004.0 |
| 20260505093341 | 71 | 146 | 13.0 | 16.0 | 0.00 | 0.00 | 0.00 | 91 | 1004.0 |
| 20260505092838 | 71 | 158 | 10.0 | 11.0 | 0.00 | 0.00 | 0.00 | 91 | 1004.0 |
| 20260505092337 | 71 | 152 | 8.0 | 9.0 | 0.00 | 0.00 | 0.00 | 91 | 1004.3 |
| 20260505091833 | 71 | 186 | 9.0 | 9.0 | 0.00 | 0.00 | 0.00 | 91 | 1004.3 |
| 20260505091331 | 71 | 171 | 15.0 | 17.0 | 0.00 | 0.00 | 0.00 | 91 | 1004.3 |
| 20260505090829 | 71 | 152 | 9.0 | 9.0 | 0.00 | 0.00 | 0.00 | 91 | 1004.0 |
| 20260505090327 | 71 | 163 | 8.0 | 9.0 | 0.00 | 0.00 | 0.00 | 91 | 1004.3 |
| 20260505085824 | 71 | 126 | 9.0 | 9.0 | 0.00 | 0.00 | 0.00 | 91 | 1004.3 |
| 20260505085322 | 71 | 156 | 16.0 | 18.0 | 0.00 | 0.00 | 0.00 | 91 | 1004.3 |
| 20260505084819 | 71 | 148 | 6.0 | 6.0 | 0.00 | 0.00 | 0.00 | 91 | 1004.3 |
| 20260505084318 | 71 | 150 | 10.0 | 10.0 | 0.00 | 0.00 | 0.00 | 91 | 1004.3 |
| 20260505083814 | 71 | 174 | 9.0 | 9.0 | 0.00 | 0.00 | 0.00 | 91 | 1004.7 |
| 20260505083312 | 71 | 145 | 3.0 | 3.0 | 0.00 | 0.00 | 0.00 | 91 | 1004.7 |
| 20260505082808 | 71 | 157 | 7.0 | 8.0 | 0.00 | 0.00 | 0.00 | 91 | 1005.0 |
| 20260505082305 | 71 | 168 | 11.0 | 11.0 | 0.00 | 0.00 | 0.00 | 91 | 1005.0 |
| 20260505081801 | 71 | 170 | 8.0 | 9.0 | 0.00 | 0.00 | 0.00 | 91 | 1005.0 |
| 20260505081258 | 71 | 146 | 7.0 | 8.0 | 0.00 | 0.00 | 0.00 | 91 | 1005.0 |
| 20260505080755 | 71 | 170 | 12.0 | 14.0 | 0.00 | 0.00 | 0.00 | 91 | 1005.0 |
| 20260505080250 | 71 | 163 | 5.0 | 5.0 | 0.00 | 0.00 | 0.00 | 91 | 1005.0 |
| 20260505075746 | 71 | 168 | 10.0 | 10.0 | 0.00 | 0.00 | 0.00 | 91 | 1005.0 |
| 20260505075244 | 71 | 150 | 13.0 | 14.0 | 0.00 | 0.00 | 0.00 | 91 | 1005.0 |
| 20260505074741 | 71 | 155 | 7.0 | 8.0 | 0.00 | 0.00 | 0.00 | 91 | 1005.0 |
| 20260505074238 | 70 | 146 | 5.0 | 5.0 | 0.00 | 0.00 | 0.00 | 91 | 1005.0 |
| 20260505073735 | 70 | 156 | 5.0 | 6.0 | 0.00 | 0.00 | 0.00 | 91 | 1005.0 |
| 20260505073233 | 70 | 198 | 10.0 | 11.0 | 0.00 | 0.00 | 0.00 | 91 | 1005.3 |
| 20260505072730 | 70 | 186 | 12.0 | 14.0 | 0.00 | 0.00 | 0.00 | 91 | 1005.0 |
| 20260505072226 | 70 | 137 | 6.0 | 6.0 | 0.00 | 0.00 | 0.00 | 91 | 1005.3 |
| 20260505071721 | 70 | 161 | 7.0 | 7.0 | 0.00 | 0.00 | 0.00 | 90 | 1005.3 |
| 20260505071219 | 70 | 145 | 8.0 | 9.0 | 0.00 | 0.00 | 0.00 | 90 | 1005.3 |
| 20260505070716 | 70 | 192 | 9.0 | 9.0 | 0.00 | 0.00 | 0.00 | 90 | 1005.3 |
| 20260505070212 | 70 | 174 | 9.0 | 9.0 | 0.00 | 0.00 | 0.00 | 90 | 1005.7 |
| 20260505065708 | 70 | 150 | 5.0 | 5.0 | 0.00 | 0.00 | 0.00 | 90 | 1005.7 |
| 20260505065205 | 70 | 186 | 7.0 | 7.0 | 0.00 | 0.00 | 0.00 | 90 | 1005.7 |
| 20260505064702 | 71 | 168 | 5.0 | 5.0 | 0.00 | 0.00 | 0.00 | 90 | 1005.7 |
| 20260505064200 | 71 | 139 | 11.0 | 11.0 | 0.00 | 0.00 | 0.00 | 89 | 1005.7 |
| 20260505063657 | 71 | 151 | 9.0 | 9.0 | 0.00 | 0.00 | 0.00 | 89 | 1006.0 |
| 20260505063153 | 71 | 166 | 8.0 | 9.0 | 0.00 | 0.00 | 0.00 | 89 | 1005.7 |
| 20260505062649 | 71 | 145 | 6.0 | 6.0 | 0.00 | 0.00 | 0.00 | 89 | 1005.7 |
| 20260505062147 | 70 | 126 | 8.0 | 9.0 | 0.00 | 0.00 | 0.00 | 89 | 1005.7 |
| 20260505061644 | 70 | 153 | 9.0 | 9.0 | 0.00 | 0.00 | 0.00 | 89 | 1005.7 |
| 20260505061142 | 70 | 150 | 10.0 | 11.0 | 0.00 | 0.00 | 0.00 | 89 | 1005.3 |
| 20260505060639 | 70 | 143 | 8.0 | 8.0 | 0.00 | 0.00 | 0.00 | 89 | 1005.7 |
| 20260505060136 | 70 | 140 | 10.0 | 11.0 | 0.00 | 0.00 | 0.00 | 89 | 1005.3 |
| 20260505055631 | 70 | 156 | 11.0 | 12.0 | 0.00 | 0.00 | 0.00 | 89 | 1005.7 |
| 20260505055128 | 70 | 157 | 7.0 | 8.0 | 0.00 | 0.00 | 0.00 | 89 | 1005.7 |
| 20260505054626 | 70 | 174 | 11.0 | 12.0 | 0.00 | 0.00 | 0.00 | 89 | 1005.3 |
| 20260505054124 | 70 | 149 | 11.0 | 12.0 | 0.00 | 0.00 | 0.00 | 89 | 1005.3 |
| 20260505053621 | 70 | 149 | 9.0 | 9.0 | 0.00 | 0.00 | 0.00 | 89 | 1005.7 |
| 20260505053117 | 70 | 132 | 7.0 | 7.0 | 0.00 | 0.00 | 0.00 | 88 | 1005.7 |
| 20260505052614 | 70 | 144 | 8.0 | 9.0 | 0.00 | 0.00 | 0.00 | 88 | 1005.7 |
| 20260505052112 | 70 | 146 | 9.0 | 10.0 | 0.00 | 0.00 | 0.00 | 88 | 1006.0 |
| 20260505051608 | 70 | 120 | 9.0 | 9.0 | 0.00 | 0.00 | 0.00 | 88 | 1005.7 |
| 20260505051107 | 71 | 138 | 6.0 | 7.0 | 0.00 | 0.00 | 0.00 | 87 | 1005.7 |
| 20260505050604 | 71 | 163 | 11.0 | 12.0 | 0.00 | 0.00 | 0.00 | 87 | 1005.7 |
| 20260505041532 | 71 | 149 | 15.0 | 17.0 | 0.00 | 0.00 | 0.00 | 85 | 1006.3 |
| 20260505041029 | 71 | 143 | 5.0 | 6.0 | 0.00 | 0.00 | 0.00 | 85 | 1006.3 |
| 20260505040526 | 72 | 145 | 13.0 | 14.0 | 0.00 | 0.00 | 0.00 | 85 | 1006.0 |
| 20260505040024 | 72 | 162 | 12.0 | 13.0 | 0.00 | 0.00 | 0.00 | 84 | 1006.0 |
| 20260505035519 | 72 | 149 | 12.0 | 12.0 | 0.00 | 0.00 | 0.00 | 85 | 1006.0 |
| 20260505035016 | 72 | 180 | 8.0 | 9.0 | 0.00 | 0.00 | 0.00 | 84 | 1006.3 |
| 20260505034513 | 72 | 144 | 8.0 | 9.0 | 0.00 | 0.00 | 0.00 | 84 | 1006.0 |
| 20260505034010 | 72 | 145 | 10.0 | 11.0 | 0.00 | 0.00 | 0.00 | 84 | 1006.0 |
| 20260505033507 | 72 | 143 | 14.0 | 18.0 | 0.00 | 0.00 | 0.00 | 83 | 1006.0 |
| 20260505033005 | 73 | 142 | 7.0 | 8.0 | 0.00 | 0.00 | 0.00 | 83 | 1006.0 |
| 20260505032502 | 73 | 160 | 17.0 | 18.0 | 0.00 | 0.00 | 0.00 | 83 | 1006.0 |
| 20260505031958 | 73 | 158 | 9.0 | 9.0 | 0.00 | 0.00 | 0.00 | 83 | 1006.0 |
| 20260505031455 | 73 | 124 | 8.0 | 9.0 | 0.00 | 0.00 | 0.00 | 83 | 1005.7 |
| 20260505030952 | 73 | 137 | 14.0 | 16.0 | 0.00 | 0.00 | 0.00 | 83 | 1005.7 |
| 20260505030448 | 73 | 168 | 15.0 | 19.0 | 0.00 | 0.00 | 0.00 | 83 | 1006.0 |
| 20260505025943 | 73 | 138 | 8.0 | 9.0 | 0.00 | 0.00 | 0.00 | 82 | 1006.0 |
| 20260505025441 | 73 | 167 | 11.0 | 11.0 | 0.00 | 0.00 | 0.00 | 82 | 1006.0 |
| 20260505024940 | 73 | 148 | 13.0 | 14.0 | 0.00 | 0.00 | 0.00 | 82 | 1006.0 |
| 20260505024437 | 73 | 128 | 12.0 | 14.0 | 0.00 | 0.00 | 0.00 | 82 | 1006.0 |
| 20260505023934 | 74 | 151 | 13.0 | 14.0 | 0.00 | 0.00 | 0.00 | 82 | 1005.7 |
| 20260505023431 | 74 | 148 | 15.0 | 19.0 | 0.00 | 0.00 | 0.00 | 81 | 1005.7 |
| 20260505022928 | 74 | 125 | 11.0 | 11.0 | 0.00 | 0.00 | 0.00 | 81 | 1005.7 |
| 20260505022426 | 74 | 131 | 8.0 | 9.0 | 0.00 | 0.00 | 0.00 | 81 | 1006.0 |
| 20260505021922 | 74 | 138 | 7.0 | 7.0 | 0.00 | 0.00 | 0.00 | 81 | 1005.7 |
| 20260505021419 | 74 | 126 | 5.0 | 6.0 | 0.00 | 0.00 | 0.00 | 81 | 1005.7 |
| 20260505020915 | 74 | 162 | 10.0 | 10.0 | 0.00 | 0.00 | 0.00 | 81 | 1005.7 |
| 20260505020410 | 74 | 132 | 8.0 | 9.0 | 0.00 | 0.00 | 0.00 | 81 | 1005.7 |
| 20260505015908 | 74 | 132 | 9.0 | 9.0 | 0.00 | 0.00 | 0.00 | 81 | 1005.7 |
| 20260505015405 | 74 | 127 | 5.0 | 6.0 | 0.00 | 0.00 | 0.00 | 81 | 1005.7 |
| 20260505014902 | 74 | 112 | 8.0 | 9.0 | 0.00 | 0.00 | 0.00 | 80 | 1005.7 |
| 20260505014359 | 74 | 145 | 5.0 | 6.0 | 0.00 | 0.00 | 0.00 | 80 | 1005.7 |
| 20260505013855 | 74 | 148 | 9.0 | 9.0 | 0.00 | 0.00 | 0.00 | 80 | 1005.3 |
| 20260505013352 | 74 | 131 | 6.0 | 7.0 | 0.00 | 0.00 | 0.00 | 80 | 1005.3 |
| 20260505012851 | 74 | 120 | 8.0 | 9.0 | 0.00 | 0.00 | 0.00 | 80 | 1005.3 |
| 20260505012349 | 74 | 128 | 7.0 | 7.0 | 0.00 | 0.00 | 0.00 | 80 | 1005.3 |
| 20260505011844 | 75 | 123 | 5.0 | 5.0 | 0.00 | 0.00 | 0.00 | 79 | 1005.7 |
| 20260505011341 | 75 | 126 | 5.0 | 5.0 | 0.00 | 0.00 | 0.00 | 79 | 1005.3 |
| 20260505010837 | 75 | 115 | 5.0 | 6.0 | 0.00 | 0.00 | 0.00 | 78 | 1005.7 |
| 20260505010333 | 75 | 126 | 6.0 | 6.0 | 0.00 | 0.00 | 0.00 | 78 | 1005.3 |
| 20260505005830 | 76 | 138 | 10.0 | 10.0 | 0.00 | 0.00 | 0.00 | 77 | 1005.3 |
| 20260505005327 | 76 | 134 | 5.0 | 6.0 | 0.00 | 0.00 | 0.00 | 77 | 1005.3 |
| 20260505004824 | 76 | 124 | 8.0 | 9.0 | 0.00 | 0.00 | 0.00 | 76 | 1005.0 |
| 20260505004320 | 76 | 121 | 13.0 | 14.0 | 0.00 | 0.00 | 0.00 | 76 | 1005.0 |
| 20260505003818 | 77 | 138 | 9.0 | 10.0 | 0.00 | 0.00 | 0.00 | 75 | 1005.3 |
| 20260505003315 | 77 | 151 | 7.0 | 7.0 | 0.00 | 0.00 | 0.00 | 75 | 1005.0 |
| 20260505002811 | 77 | 150 | 13.0 | 16.0 | 0.00 | 0.00 | 0.00 | 74 | 1005.3 |
| 20260505002308 | 77 | 138 | 11.0 | 12.0 | 0.00 | 0.00 | 0.00 | 74 | 1005.3 |
| 20260505001806 | 78 | 126 | 9.0 | 9.0 | 0.00 | 0.00 | 0.00 | 74 | 1005.7 |
| 20260505001303 | 78 | 138 | 7.0 | 7.0 | 0.00 | 0.00 | 0.00 | 75 | 1005.7 |
| 20260505000800 | 78 | 132 | 6.0 | 7.0 | 0.00 | 0.00 | 0.00 | 74 | 1005.7 |
| 20260505000258 | 78 | 138 | 9.0 | 9.0 | 0.00 | 0.00 | 0.00 | 74 | 1005.7 |
| 20260504235754 | 78 | 144 | 6.0 | 6.0 | 0.00 | 0.00 | 0.00 | 73 | 1005.7 |
| 20260504235250 | 78 | 182 | 12.0 | 12.0 | 0.00 | 0.00 | 0.00 | 72 | 1005.7 |
| 20260504234748 | 78 | 128 | 16.0 | 17.0 | 0.00 | 0.00 | 0.00 | 72 | 1005.7 |
| 20260504234245 | 78 | 144 | 11.0 | 11.0 | 0.00 | 0.00 | 0.00 | 72 | 1005.7 |
| 20260504233741 | 78 | 126 | 11.0 | 12.0 | 0.00 | 0.00 | 0.00 | 71 | 1005.7 |
| 20260504233237 | 78 | 138 | 7.0 | 8.0 | 0.00 | 0.00 | 0.00 | 71 | 1005.7 |
| 20260504232734 | 78 | 144 | 10.0 | 10.0 | 0.00 | 0.00 | 0.00 | 71 | 1005.7 |
| 20260504232231 | 78 | 153 | 15.0 | 16.0 | 0.00 | 0.00 | 0.00 | 70 | 1005.7 |
| 20260504231728 | 79 | 138 | 12.0 | 14.0 | 0.00 | 0.00 | 0.00 | 70 | 1005.7 |
| 20260504231224 | 79 | 156 | 7.0 | 8.0 | 0.00 | 0.00 | 0.00 | 69 | 1006.0 |
| 20260504230720 | 79 | 234 | 8.0 | 8.0 | 0.00 | 0.00 | 0.00 | 69 | 1006.0 |
| 20260504230220 | 79 | 156 | 10.0 | 12.0 | 0.00 | 0.00 | 0.00 | 69 | 1005.7 |
| 20260504225718 | 79 | 126 | 8.0 | 8.0 | 0.00 | 0.00 | 0.00 | 68 | 1006.0 |
| 20260504225214 | 79 | 168 | 9.0 | 9.0 | 0.00 | 0.00 | 0.00 | 66 | 1005.7 |
| 20260504224711 | 79 | 138 | 10.0 | 10.0 | 0.00 | 0.00 | 0.00 | 66 | 1005.7 |
| 20260504224209 | 80 | 114 | 14.0 | 16.0 | 0.00 | 0.00 | 0.00 | 64 | 1006.0 |
| 20260504223704 | 81 | 144 | 8.0 | 9.0 | 0.00 | 0.00 | 0.00 | 65 | 1006.3 |
| 20260504223200 | 80 | 168 | 7.0 | 8.0 | 0.00 | 0.00 | 0.00 | 63 | 1006.3 |
| 20260504222658 | 80 | 109 | 9.0 | 10.0 | 0.00 | 0.00 | 0.00 | 65 | 1006.0 |
| 20260504222154 | 80 | 145 | 6.0 | 7.0 | 0.00 | 0.00 | 0.00 | 64 | 1005.7 |
| 20260504221651 | 80 | 150 | 9.0 | 9.0 | 0.00 | 0.00 | 0.00 | 64 | 1006.0 |
| 20260504221149 | 80 | 122 | 13.0 | 15.0 | 0.00 | 0.00 | 0.00 | 63 | 1006.3 |
| 20260504220645 | 80 | 138 | 7.0 | 8.0 | 0.00 | 0.00 | 0.00 | 64 | 1006.3 |
| 20260504220143 | 80 | 166 | 13.0 | 15.0 | 0.00 | 0.00 | 0.00 | 63 | 1006.3 |
| 20260504215638 | 80 | 144 | 13.0 | 14.0 | 0.00 | 0.00 | 0.00 | 64 | 1006.0 |
| 20260504215136 | 80 | 128 | 7.0 | 7.0 | 0.00 | 0.00 | 0.00 | 66 | 1006.3 |
| 20260504214632 | 79 | 146 | 9.0 | 9.0 | 0.00 | 0.00 | 0.00 | 65 | 1006.3 |
| 20260504214128 | 80 | 126 | 13.0 | 14.0 | 0.00 | 0.00 | 0.00 | 65 | 1006.3 |
| 20260504213625 | 81 | 127 | 15.0 | 16.0 | 0.00 | 0.00 | 0.00 | 63 | 1006.7 |
| 20260504213122 | 81 | 144 | 11.0 | 12.0 | 0.00 | 0.00 | 0.00 | 62 | 1006.7 |
| 20260504212618 | 81 | 132 | 9.0 | 9.0 | 0.00 | 0.00 | 0.00 | 63 | 1006.7 |
| 20260504212115 | 80 | 132 | 11.0 | 12.0 | 0.00 | 0.00 | 0.00 | 62 | 1006.7 |
| 20260504211612 | 80 | 147 | 11.0 | 11.0 | 0.00 | 0.00 | 0.00 | 63 | 1006.7 |
| 20260504211109 | 81 | 184 | 14.0 | 16.0 | 0.00 | 0.00 | 0.00 | 61 | 1007.0 |
| 20260504210607 | 80 | 234 | 11.0 | 12.0 | 0.00 | 0.00 | 0.00 | 63 | 1007.0 |
| 20260504205601 | 79 | 150 | 7.0 | 8.0 | 0.00 | 0.00 | 0.00 | 65 | 1007.4 |
| 20260504205058 | 80 | 127 | 11.0 | 12.0 | 0.00 | 0.00 | 0.00 | 63 | 1007.4 |
| 20260504204556 | 79 | 150 | 8.0 | 8.0 | 0.00 | 0.00 | 0.00 | 64 | 1007.7 |
| 20260504204055 | 79 | 144 | 4.0 | 4.0 | 0.00 | 0.00 | 0.00 | 65 | 1007.7 |
| 20260504203553 | 79 | 162 | 12.0 | 12.0 | 0.00 | 0.00 | 0.00 | 63 | 1008.0 |
| 20260504203050 | 79 | 138 | 12.0 | 12.0 | 0.00 | 0.00 | 0.00 | 64 | 1008.0 |
| 20260504202545 | 79 | 147 | 7.0 | 7.0 | 0.00 | 0.00 | 0.00 | 63 | 1008.0 |
| 20260504202042 | 79 | 147 | 4.0 | 4.0 | 0.00 | 0.00 | 0.00 | 64 | 1008.0 |
| 20260504201539 | 79 | 162 | 7.0 | 8.0 | 0.00 | 0.00 | 0.00 | 65 | 1008.4 |
| 20260504201037 | 79 | 134 | 14.0 | 15.0 | 0.00 | 0.00 | 0.00 | 64 | 1008.4 |
| 20260504200533 | 79 | 138 | 11.0 | 11.0 | 0.00 | 0.00 | 0.00 | 63 | 1008.4 |
| 20260504200030 | 81 | 123 | 10.0 | 10.0 | 0.00 | 0.00 | 0.00 | 62 | 1008.0 |
| 20260504195526 | 80 | 184 | 9.0 | 9.0 | 0.00 | 0.00 | 0.00 | 61 | 1008.4 |
| 20260504195023 | 79 | 180 | 7.0 | 7.0 | 0.00 | 0.00 | 0.00 | 64 | 1008.4 |
| 20260504194519 | 79 | 128 | 5.0 | 6.0 | 0.00 | 0.00 | 0.00 | 64 | 1008.7 |
| 20260504194015 | 79 | 144 | 13.0 | 14.0 | 0.00 | 0.00 | 0.00 | 63 | 1008.7 |
| 20260504193512 | 79 | 150 | 7.0 | 8.0 | 0.00 | 0.00 | 0.00 | 62 | 1009.2 |
| 20260504193011 | 80 | 138 | 9.0 | 9.0 | 0.00 | 0.00 | 0.00 | 60 | 1009.2 |
| 20260504192508 | 79 | 158 | 10.0 | 11.0 | 0.00 | 0.00 | 0.00 | 63 | 1009.2 |
| 20260504192007 | 79 | 120 | 7.0 | 7.0 | 0.00 | 0.00 | 0.00 | 64 | 1009.2 |
| 20260504191504 | 78 | 152 | 11.0 | 11.0 | 0.00 | 0.00 | 0.00 | 63 | 1009.2 |
| 20260504190959 | 78 | 167 | 5.0 | 6.0 | 0.00 | 0.00 | 0.00 | 65 | 1009.2 |
| 20260504190455 | 78 | 168 | 8.0 | 9.0 | 0.00 | 0.00 | 0.00 | 65 | 1009.5 |
| 20260504185952 | 78 | 126 | 17.0 | 19.0 | 0.00 | 0.00 | 0.00 | 65 | 1009.5 |
| 20260504185449 | 79 | 204 | 8.0 | 9.0 | 0.00 | 0.00 | 0.00 | 64 | 1009.5 |
| 20260504184945 | 78 | 172 | 10.0 | 11.0 | 0.00 | 0.00 | 0.00 | 63 | 1009.5 |
| 20260504184441 | 78 | 150 | 9.0 | 9.0 | 0.00 | 0.00 | 0.00 | 65 | 1009.5 |
| 20260504183937 | 79 | 150 | 6.0 | 6.0 | 0.00 | 0.00 | 0.00 | 64 | 1009.8 |
| 20260504183434 | 78 | 152 | 6.0 | 7.0 | 0.00 | 0.00 | 0.00 | 66 | 1009.8 |
| 20260504182932 | 78 | 145 | 6.0 | 6.0 | 0.00 | 0.00 | 0.00 | 65 | 1009.8 |
| 20260504182429 | 78 | 138 | 13.0 | 14.0 | 0.00 | 0.00 | 0.00 | 66 | 1010.2 |
| 20260504181926 | 78 | 150 | 8.0 | 9.0 | 0.00 | 0.00 | 0.00 | 64 | 1009.8 |
| 20260504181423 | 78 | 198 | 11.0 | 11.0 | 0.00 | 0.00 | 0.00 | 63 | 1009.8 |
| 20260504180922 | 78 | 180 | 5.0 | 6.0 | 0.00 | 0.00 | 0.00 | 62 | 1009.8 |
| 20260504180420 | 78 | 186 | 4.0 | 4.0 | 0.00 | 0.00 | 0.00 | 62 | 1010.2 |
| 20260504175918 | 78 | 191 | 5.0 | 6.0 | 0.00 | 0.00 | 0.00 | 60 | 1010.2 |
| 20260504175415 | 78 | 156 | 2.0 | 2.0 | 0.00 | 0.00 | 0.00 | 63 | 1010.2 |
| 20260504174913 | 78 | 180 | 6.0 | 6.0 | 0.00 | 0.00 | 0.00 | 62 | 1010.5 |
| 20260504174410 | 79 | 191 | 5.0 | 5.0 | 0.00 | 0.00 | 0.00 | 61 | 1010.2 |
| 20260504173907 | 78 | 120 | 10.0 | 10.0 | 0.00 | 0.00 | 0.00 | 62 | 1010.5 |
| 20260504173403 | 78 | 162 | 9.0 | 9.0 | 0.00 | 0.00 | 0.00 | 63 | 1010.2 |
| 20260504172901 | 78 | 150 | 9.0 | 9.0 | 0.00 | 0.00 | 0.00 | 62 | 1010.5 |
| 20260504172357 | 78 | 108 | 8.0 | 9.0 | 0.00 | 0.00 | 0.00 | 63 | 1010.5 |
| 20260504171853 | 78 | 156 | 11.0 | 11.0 | 0.00 | 0.00 | 0.00 | 62 | 1010.5 |
| 20260504171351 | 78 | 122 | 12.0 | 12.0 | 0.00 | 0.00 | 0.00 | 64 | 1010.5 |
| 20260504170848 | 77 | 156 | 7.0 | 8.0 | 0.00 | 0.00 | 0.00 | 63 | 1010.8 |
| 20260504170344 | 77 | 170 | 10.0 | 11.0 | 0.00 | 0.00 | 0.00 | 63 | 1010.8 |